Location: Owatonna
(44.0840°N, 93.2260°W)
Time: 17:32:06
(UTC-05:00)

Daily predictions for brighter satellites

Satellite Brightness Start Highest point End
(mag) Time Altitude Azimuth Time Altitude Azimuth Time Altitude Azimuth
Cosmos 990 Rocket 4.1 19:53:15 10° SSW 19:58:30 88° ESE 20:03:46 10° NNE
BREEZE-M DEB (TANK) 4.4 19:56:04 10° SSE 19:58:33 17° ESE 20:03:05 10° ENE
Cosmos 2123 Rocket 4.1 19:52:38 10° N 19:58:57 65° E 20:05:10 10° SSE
ATLAS 5 CENTAUR R/B 3.1 19:56:23 10° SSE 19:59:32 18° ESE 20:02:51 10° ENE
SJ-6B 2.7 19:59:31 10° SSE 20:03:15 90° W 20:07:01 10° NNW
Cosmos 2297 4.2 20:04:46 10° S 20:09:58 38° ESE 20:15:13 10° NE
Envisat 4.3 20:06:49 10° ESE 20:10:41 22° ENE 20:14:34 10° NNE
H-2A R/B 2.9 20:08:09 10° SSE 20:11:58 55° ENE 20:15:50 10° N
Resurs 1-3 3.7 20:12:59 10° SSE 20:17:15 54° ENE 20:21:33 10° N
FengYun 1-2 T 4.3 20:12:41 10° SSE 20:18:16 87° ENE 20:23:57 10° NNW
Cosmos 1125 Rocket 3.7 20:14:20 10° S 20:19:17 47° ESE 20:24:17 10° NNE
Cosmos 1408 Rocket 4.3 20:15:45 10° N 20:19:52 34° ENE 20:23:56 10° SE
Cosmos 1048 Rocket 4.1 20:15:49 10° NNW 20:20:51 52° ENE 20:25:50 10° SE
Cosmos 2082 Rocket 2.4 20:15:54 10° NNW 20:21:32 55° ENE 20:27:04 10° SE
CZ-2C R/B 0.8 20:22:01 10° N 20:24:11 85° W 20:25:54 10° S
SeaSat 1 2.7 20:21:42 10° SSE 20:26:38 75° WSW 20:31:35 10° NNW
HJ-1C 4.0 20:25:56 10° S 20:29:17 60° W 20:32:41 10° NNW
Timation 2 Rocket 4.1 20:23:40 10° NNW 20:29:56 56° ENE 20:35:50 10° SE
Cosmos 1758 3.3 20:26:04 10° S 20:29:58 61° E 20:33:57 10° NNE
ALOS 2.9 20:26:59 10° S 20:31:35 60° W 20:36:14 10° NNW
Cosmos 1447 Rocket 4.4 20:30:24 10° N 20:36:33 71° E 20:42:40 10° SSE
Cosmos 1953 2.3 20:33:05 10° S 20:37:07 68° E 20:41:10 10° NNE
Cosmos 1271 Rocket 3.5 20:34:05 10° SSE 20:37:41 33° E 20:41:19 10° NNE
Helios 1B rocket 2.9 20:34:05 10° NNE 20:37:57 37° E 20:41:47 10° SSE
Cosmos 1459 Rocket 4.4 20:32:17 10° SSE 20:37:59 39° E 20:43:38 10° NNE
Cosmos 482 Debris 3.7 20:38:07 10° NW 20:39:46 26° NNE 20:40:02 25° NE
BREEZE-M DEB (TANK) 3.3 20:37:54 10° NW 20:40:00 28° NNE 20:41:29 17° ENE
Okean 3 Rocket 4.0 20:35:54 10° NNW 20:40:17 67° W 20:44:39 10° S
OE (NEXTSAT) 4.5 20:39:14 10° W 20:42:50 77° NNW 20:45:21 19° ENE
Cosmos 1076 Rocket 3.4 20:40:14 10° N 20:44:30 88° E 20:48:45 10° S
SAR-Lupe-4 3.5 20:41:13 10° SSE 20:44:43 62° ENE 20:48:17 10° N
Cosmos 2173 Rocket 4.3 20:39:13 10° SSE 20:45:00 43° E 20:50:52 10° NNE
Abrixas 4.0 20:42:50 10° W 20:45:19 27° SW 20:46:58 16° SSE
Meteor 1-29 3.6 20:43:03 10° NNE 20:46:15 33° E 20:49:25 10° SSE
Cosmos 1939 Rocket 3.7 20:44:14 20° ESE 20:46:22 33° ENE 20:50:07 10° N
Lacrosse 4 Rocket 4.3 20:44:56 10° W 20:47:31 16° NW 20:50:07 10° N
YAOGAN 6 4.3 20:47:36 18° ENE 20:47:52 18° ENE 20:50:27 10° NNE
Cosmos 1674 2.6 20:44:08 10° N 20:47:55 64° E 20:51:30 11° SSE
Spot 1 4.3 20:43:43 10° SSE 20:48:22 70° ENE 20:53:20 10° N
COSMOS 2487 2.5 20:50:25 10° NNW 20:54:00 78° WSW 20:56:56 14° SSE
CZ-4B DEB 2.9 20:52:57 30° SE 20:54:08 49° ENE 20:57:09 10° N
Lacrosse 5 rocket 1.2 20:52:42 10° NW 20:56:39 64° NE 20:58:14 32° ESE
Helios 1A 2.9 20:53:12 10° SSE 20:57:21 83° ENE 21:01:35 10° NNW
Cosmos 2251 Rocket 4.2 20:54:13 10° N 20:59:10 37° ENE 21:01:25 26° ESE
Cosmos 1818 4.4 20:54:13 10° NW 20:59:27 49° WSW 21:04:39 10° S
ISS -3.5 20:58:49 10° SSW 21:01:54 42° SE 21:02:04 41° SE
Cosmos 1269 Rocket 4.3 20:57:16 10° NNW 21:02:32 68° WSW 21:07:46 10° S
SAR-Lupe-1 4.0 21:00:48 17° SSE 21:03:30 88° WSW 21:07:06 10° NNW
USA 186 2.0 21:04:49 30° SSW 21:05:32 42° W 21:07:41 10° NNW
Cosmos 1766 Rocket 3.7 21:01:27 10° NNW 21:05:56 77° W 21:10:24 10° S
GP-B 3.1 21:03:41 10° S 21:08:06 84° W 21:12:35 10° N
Meteor 1-4 Rocket 3.8 21:06:02 10° SSW 21:09:20 40° WNW 21:12:40 10° N
CZ-2D R/B 4.5 21:05:49 10° S 21:09:30 42° W 21:13:14 10° NNW
CZ-3B DEB 3.5 21:00:40 10° WSW 21:09:58 47° NNW 21:14:22 10° NE
Cosmos 372 Rocket 4.0 21:06:50 10° SSW 21:11:57 80° WNW 21:17:09 10° NNE
Cosmos-2242 2.9 21:09:01 10° S 21:13:16 88° W 21:17:33 10° N
Resurs 01 Rocket 3.4 21:11:57 10° SSW 21:15:52 31° W 21:19:49 10° NNW
Cosmos 158 Rocket 4.4 21:11:01 10° NNW 21:16:04 62° WSW 21:20:47 12° S
Cosmos 2016 Rocket 4.0 21:10:53 10° SSE 21:16:54 55° E 21:22:54 10° NNE
USA 215 3.5 21:13:29 10° ENE 21:19:43 45° SE 21:25:54 10° SSW
Cosmos 1725 Rocket 4.2 21:23:26 31° SE 21:25:52 45° E 21:31:44 10° NNE
Cosmos 1356 Rocket 3.3 21:23:01 10° N 21:27:05 58° ENE 21:27:16 57° E
Cosmos 1833 Rocket 3.4 21:21:54 10° NW 21:27:20 51° WSW 21:31:55 14° S
Lacrosse 5 3.5 21:23:25 10° W 21:27:57 31° NNW 21:32:28 10° NE
Cosmos 1470 3.4 21:27:23 10° SSW 21:31:18 55° W 21:35:13 10° N
SPOT 5 3.7 21:33:35 37° E 21:34:00 38° ENE 21:38:54 10° N
Cosmos 2100 Rocket 4.2 21:28:07 10° SSW 21:34:26 74° W 21:40:51 10° N
Cosmos 1733 4.0 21:30:53 10° SSW 21:34:39 52° W 21:38:28 10° N
Cosmos 494 Rocket 3.8 21:31:48 10° NNW 21:36:56 76° ENE 21:38:10 52° SE
Cosmos 1867 4.5 21:31:47 10° SW 21:37:05 50° NW 21:42:25 10° NNE
Cosmos 2278 Rocket 4.5 21:32:38 10° WSW 21:37:14 25° NW 21:41:53 10° N
Cosmos 1743 Rocket 3.7 21:32:49 10° NNW 21:37:15 75° W 21:38:55 38° S
Cosmos 1500 Rocket 3.3 21:34:17 10° N 21:38:38 82° E 21:39:09 68° SSE
H-2A R/B 4.3 21:40:22 12° NE 21:40:22 12° NE 21:40:54 10° NNE
SL-08 R/B 4.4 21:33:42 16° S 21:38:49 69° E 21:45:13 10° NNE
Cosmos 1340 Rocket 3.8 21:37:14 10° NNW 21:41:05 44° W 21:42:57 26° SSW
ATLAS 5 CENTAUR R/B 2.2 21:38:54 10° SW 21:43:36 62° NW 21:48:45 10° NNE
Tsikada Rocket 4.0 21:37:55 10° N 21:44:05 63° E 21:45:44 47° SE
Terra 3.9 21:47:55 14° NE 21:47:55 14° NE 21:49:20 10° NNE
Cosmos 1184 Rocket 3.7 21:45:29 10° NNW 21:48:24 48° WNW 21:48:24 48° WNW
Envisat 3.8 21:45:57 19° SSW 21:49:22 50° W 21:54:19 10° NNW
USA 267 3.9 21:50:51 33° ENE 21:53:15 46° NNE 21:59:26 10° NW
Cosmos 1802 Rocket 4.4 21:50:59 10° SSW 21:57:03 63° W 22:03:12 10° N
Cosmos 2058 3.5 21:54:34 10° N 21:57:45 50° N 21:57:45 50° N
H-2A R/B 3.0 22:02:14 34° NE 22:02:14 34° NE 22:06:11 10° N
ERS-1 Rocket 3.2 22:03:18 53° SSW 22:04:17 66° WSW 22:09:20 10° NNW
Cosmos 2082 Rocket 4.2 22:00:49 10° NW 22:05:10 23° W 22:09:28 10° SSW
SL-14 R/B 4.2 22:02:31 10° NNW 22:05:54 45° WNW 22:05:54 45° WNW
Cosmos 2151 3.5 22:05:32 10° NNW 22:09:13 56° WNW 22:09:13 56° WNW
Meteor 1-11 4.4 22:04:43 10° NNW 22:10:16 67° W 22:11:31 51° SSW
MetOp-A 4.0 22:10:20 81° S 22:10:36 87° WSW 22:16:00 10° NNW
ARGOS 3.1 22:14:09 70° NE 22:14:09 70° NE 22:19:07 10° N
Cosmos 1816 Rocket 4.4 22:09:18 10° N 22:15:32 90° E 22:16:19 71° S
USA 245 4.2 22:24:40 87° WSW 22:24:40 87° WSW 22:30:59 10° NNW
Cosmos 2233 Rocket 3.9 22:31:21 81° NNE 22:31:21 81° NNE 22:37:11 10° N
Meteor 2-1 Rocket 4.4 22:33:34 69° W 22:33:42 69° WNW 22:39:22 10° N
Lacrosse 5 rocket 4.0 22:33:02 10° W 22:33:58 13° W 22:33:58 13° W
SPOT 1/Viking Rocket 4.3 22:46:35 50° NNW 22:46:35 50° NNW 22:50:28 10° NNW
CZ-4C R/B 4.4 23:02:44 16° NE 23:02:44 16° NE 23:03:52 10° NE
Cosmos 2369 Rocket 3.4 23:00:18 35° N 23:00:18 35° N 23:03:36 10° NNE
USA 215 3.6 22:56:26 10° NE 23:02:51 61° NNW 23:09:15 10° WSW
Cosmos 2227 Rocket 4.4 23:08:31 10° N 23:10:52 16° NNE 23:10:52 16° NNE
Lacrosse 5 4.1 23:08:44 10° NW 23:12:18 19° N 23:12:59 18° N
CZ-3B DEB 4.3 23:19:11 10° NW 23:21:29 16° NNW 23:21:29 16° NNW
Terra 4.0 23:26:48 22° NNW 23:26:48 22° NNW 23:28:31 10° NNW
Cosmos 1943 Rocket 4.3 23:29:55 19° NNE 23:29:55 19° NNE 23:31:25 10° NNE
USA 267 4.0 23:38:11 45° WNW 23:38:11 45° WNW 23:42:36 10° NW
H-2A R/B 4.1 23:42:52 24° WNW 23:42:52 24° WNW 23:45:31 10° NNW
